• Processing (Info)

  • MPEC 2023-O24 : 2023 OL

    The following Minor Planet Electronic Circular may be linked-to from your own Web pages, but must not otherwise be redistributed electronically.

    A form allowing access to any MPEC is at the bottom of this page.


    Read MPEC 2023-O23 Read MPEC 2023-O25


    M.P.E.C. 2023-O24                                 Issued 2023 July 17, 21:39 UT
    
         The Minor Planet Electronic Circulars contain information on unusual
             minor planets, routine data on comets and natural satellites,
             and occasional editorial announcements.  They are published
        on behalf of Division F of the International Astronomical Union by the
              Minor Planet Center, Smithsonian Astrophysical Observatory,
                              Cambridge, MA 02138, U.S.A.
    			  
                 Prepared using the Tamkin Foundation Computer Network
    
                                  MPC@CFA.HARVARD.EDU
                URL https://www.minorplanetcenter.net/    ISSN 1523-6714
    
                                     2023 OL                                 
    
    
    Observations:
         K23O00L  C2023 06 28.38352 22 26 24.93 -14 38 37.3          20.3 GVEO024703
         K23O00L  C2023 06 28.38917 22 26 23.29 -14 38 43.4                VEO024703
         K23O00L  C2023 06 28.39483 22 26 21.48 -14 38 49.2          21.3 GVEO024703
         K23O00L  C2023 07 12.52159521 21 03.669-17 22 57.55         20.29GVEO024F51
         K23O00L  C2023 07 12.54305021 20 58.206-17 23 08.27         20.30GVEO024F51
         K23O00L* C2023 07 16.46893421 05 38.076-17 52 57.25         20.31wXEO024F51
         K23O00L  C2023 07 16.49667021 05 31.656-17 53 08.57         20.04GVEO024F51
         K23O00L  C2023 07 16.51056721 05 28.435-17 53 14.29         20.48wXEO024F51
         K23O00L  C2023 07 16.58276821 05 11.784-17 53 42.73         20.11GVEO024F52
         K23O00L  C2023 07 16.58340021 05 11.646-17 53 42.86         19.95GVEO024F52
         K23O00L KB2023 07 16.94425 21 03 52.81 -17 56 13.2          19.4 RZEO024106
         K23O00L KB2023 07 16.94863 21 03 51.75 -17 56 15.2          19.4 RZEO024106
         K23O00L KB2023 07 16.95301 21 03 50.76 -17 56 16.3          19.8 RZEO024106
         K23O00L KB2023 07 16.95739 21 03 49.80 -17 56 19.4          19.7 RZEO024106
         K23O00L KC2023 07 16.98285121 03 44.00 -17 56 28.8          20.4 GVEO024L01
         K23O00L KC2023 07 16.98457621 03 43.66 -17 56 29.3          20.6 GVEO024L01
         K23O00L KC2023 07 16.98629821 03 43.27 -17 56 30.0          20.2 GVEO024L01
         K23O00L KC2023 07 16.98728 21 03 43.11 -17 56 30.3          19.5 GVEO024104
         K23O00L KC2023 07 16.98802521 03 42.86 -17 56 30.5          20.3 GVEO024L01
         K23O00L KC2023 07 16.99062821 03 42.31 -17 56 31.7          20.6 GVEO024L01
         K23O00L KC2023 07 16.99627 21 03 41.09 -17 56 34.5                VEO024104
         K23O00L !C2023 07 17.00894 21 03 38.76 -17 56 35.1          19.9 GVEO024J04
         K23O00L !C2023 07 17.01132 21 03 38.22 -17 56 36.1          19.6 GVEO024J04
         K23O00L KC2023 07 17.03216721 03 33.108-17 56 49.78               VEO024J95
         K23O00L KC2023 07 17.04145 21 03 30.83 -17 56 52.0          19.8 RVEO024K51
         K23O00L KC2023 07 17.04994 21 03 28.90 -17 56 55.8          20.0 RVEO024K51
         K23O00L KC2023 07 17.05244121 03 28.534-17 56 57.52         20.4 GVEO024J95
         K23O00L KC2023 07 17.06259 21 03 26.05 -17 57 00.6          19.3 RVEO024K51
         K23O00L |C2023 07 17.12663 21 03 13.06 -17 57 02.6          20.1 VuEO024807
         K23O00L |C2023 07 17.13307 21 03 11.64 -17 57 04.9          19.8 VuEO024807
         K23O00L |C2023 07 17.13959 21 03 10.12 -17 57 07.0          19.8 VuEO024807
         K23O00L KB2023 07 17.30644 21 02 32.90 -17 58 34.4          20.1 rZEO024H36
         K23O00L  C2023 07 17.32002221 02 30.098-17 58 38.87         20.1 GVEO024H01
         K23O00L KB2023 07 17.32112 21 02 29.65 -17 58 40.5          20.1 rZEO024H36
         K23O00L  C2023 07 17.32481521 02 29.029-17 58 40.72         20.0 GVEO024H01
         K23O00L  C2023 07 17.33454021 02 26.827-17 58 44.55         20.1 GVEO024H01
         K23O00L  C2023 07 17.34167821 02 25.213-17 58 47.37         20.0 GVEO024H01
    
    Observer details:
    104 San Marcello Pistoiese.  Observers P. Bacci, M. Maestripieri.  Measurer P.
        Bacci.  0.60-m f/4 reflector + CCD.
    106 Crni Vrh.  Observer H. Mikuz.  0.60-m f/3.3 reflector + CMO.
    703 Catalina Sky Survey.  Observer A. Serrano.  Measurers B. Gray, D. Rankin,
        F. C. Shelly.  0.68-m Schmidt + 10K CCD.
    807 Cerro Tololo Observatory, La Serena.  Observers T. Linder, R. Holmes, L.
        Horn.  0.61-m f/6.5 Dall-Kirkham Astrograph + CCD.
    F51 Pan-STARRS 1, Haleakala.  Observers J. Bulger, K. Chambers, T. Lowe, P.
        Minguez, A. Schultz, I. Smith.  Measurers S. Chastel, J. Fairlamb, M.
        Huber, Y. Ramanjooloo, R. Wainscoat, R. Weryk, K. Chambers, T. de Boer, J.
        Bulger, H. Gao, C.-C. Lin, T. Lowe, E. Magnier, P. Minguez, A. Schultz, I.
        Smith.  1.8-m Ritchey-Chretien + CCD.
    F52 Pan-STARRS 2, Haleakala.  Observers J. Bulger, K. Chambers, T. Dukes, T.
        Lowe, P. Minguez, A. Schultz, I. Smith.  Measurers S. Chastel, J.
        Fairlamb, M. Huber, Y. Ramanjooloo, R. Wainscoat, R. Weryk.  1.8-m
        Ritchey-Chretien + CCD.
    H01 Magdalena Ridge Observatory, Socorro.  Observers W. H. Ryan, E. V. Ryan.
        Measurer W. H. Ryan.  2.4-m f/8.9 Ritchey-Chretien + CCD.
    H36 Sandlot Observatory, Scranton.  Observer G. Hug.  0.56-m f/4.2 reflector +
        CMO.
    J04 ESA Optical Ground Station, Tenerife.  Observers P. Ruiz, M. Micheli, F.
        Ocana, L. Conversi.  Measurers R. Kresken, M. Micheli, F. Ocana, A.
        Knofel, M. Busch, E. Schwab.  1.0-m f/4.4 reflector + CCD.
    J95 Great Shefford.  Observer P. Birtwhistle.  0.41-m f/6.3 Schmidt-Cassegrain
        + CCD.
    K51 Osservatorio del Celado, Castello Tesino.  Observer M. Campestrin.  0.80-m
        f/4 reflector + CCD.
    L01 Visnjan Observatory, Tican.  Observers K. Korlevic, G. Kervina.  Measurer
        K. Korlevic.  1.0-m f/2.9 reflector + CCD.
    
    Orbital elements:
    2023 OL                                             PHA, Earth MOID = 0.0285 AU
    Epoch 2023 Feb. 25.0 TT = JDT 2460000.5                 Bell                    
    M 342.27911              (2000.0)            P               Q                  
    n   0.30293812     Peri.  244.00987     -0.98825178     +0.13583139             
    a   2.1956685      Node   303.72192     -0.09169042     -0.89366512             
    e   0.7208768      Incl.    4.83184     -0.12227543     -0.42768269             
    P   3.25           H   20.52          G   0.15           U   9                  
    Residuals in seconds of arc
    230628 703  0.9-  1.0+    230716 106  0.1-  0.7-    230717 J95  0.3-  0.2-
    230628 703  0.8+  0.0     230716 L01  0.8-  0.1+    230717 K51  0.0   0.1-
    230628 703  0.1+  0.7-    230716 L01  0.0   0.3+    230717 807  0.1+  0.2-
    230712 F51  0.1+  0.0     230716 L01  0.0   0.3+    230717 807  0.5+  0.1+
    230712 F51  0.1-  0.0     230716 104  0.1+  0.1+    230717 807  0.3-  0.8+
    230716 F51  0.0   0.1-    230716 L01  0.3-  0.4+    230717 H36  0.4-  0.3+
    230716 F51  0.0   0.0     230716 L01  0.3+  0.3+    230717 H01  0.0   0.0
    230716 F51  0.0   0.1-    230716 104  0.3+  0.5-    230717 H36  0.4+  0.1-
    230716 F52  0.1+  0.0     230717 J04  0.1-  0.1-    230717 H01  0.1+  0.0
    230716 F52  0.2+  0.1+    230717 J04  0.1-  0.1-    230717 H01  0.0   0.0
    230716 106  0.5+  0.1+    230717 J95  0.2-  0.5-    230717 H01  0.0   0.0
    230716 106  0.5-  0.1-    230717 K51  0.1+  0.2+
    230716 106  0.5-  0.6+    230717 K51  0.1-  0.2-
    
    Ephemeris:
    2023 OL                  a,e,i = 2.20, 0.72, 5                   q = 0.6129
    Date    TT    R. A. (2000) Decl.     Delta      r    Elong.  Phase     V
    2023 06 17    23 26 35.4 -11 20 34   0.2934  1.0929    97.4    67.2    20.4
    ...
    2023 07 02    22 08 27.5 -15 29 08   0.3479  1.2718   130.9    37.2    20.3
    ...
    2023 07 10    21 31 39.2 -17 00 05   0.3934  1.3646   147.4    23.7    20.3
    ...
    2023 07 16    21 07 23.4 -17 49 31   0.4368  1.4327   158.9    14.8    20.3
    2023 07 17    21 03 40.2 -17 56 18   0.4449  1.4439   160.7    13.4    20.3
    2023 07 18    21 00 02.9 -18 02 42   0.4532  1.4551   162.5    12.1    20.3
    ...
    2023 07 24    20 40 25.2 -18 33 37   0.5080  1.5213   172.9     4.7    20.4
    ...
    2023 08 01    20 19 52.7 -18 58 35   0.5941  1.6075   174.6     3.4    20.8
    ...
    2023 08 16    19 56 37.7 -19 14 33   0.7923  1.7622   154.8    14.2    22.0
    
    M. P. C. Staff               (C) Copyright 2023 MPC           M.P.E.C. 2023-O24
    


    Read MPEC 2023-O23 Read MPEC 2023-O25


    MPEC number:

    Enter an MPEC number in one of the following forms:

    • 1997-B01 (the full form)
    • J97B01 (the packed version of the full form)
    • B01 (the abbreviated form)